Tioga Municipal Airport, ND

4:48 PM CST on November 23, 2017 (GMT -0600)
Tioga Municipal Airport

Weather History for KD60 - May, 2014

Change the Weather History Date:

Wednesday, May 14, 2014

  Actual Average (KISN) Record (KISN)
Temperature  
Mean Temperature 38 °F -  
Max Temperature 53 °F 69 °F 93 °F (1903)
Min Temperature 23 °F 40 °F 15 °F (1907)
Degree Days  
Heating Degree Days 27    
Moisture  
Dew Point 20 °F    
Average Humidity 53    
Maximum Humidity 100    
Minimum Humidity 22    
Precipitation  
Precipitation 0.00 in - - ()
Sea Level Pressure  
Sea Level Pressure 30.34 in    
Wind  
Wind Speed 9 mph (NNW)    
Max Wind Speed 25 mph    
Max Gust Speed 32 mph    
Visibility 10 miles    
Events      
Averages and records for this station are not official NWS values.
T = Trace of Precipitation, MM = Missing Value Source: NWS Daily Summary

Daily Weather History Graph

Daily Weather History Graph

Search for Another Location

Airport or City:

Trip Planner

Search our weather history database for the weather conditions in past years. The results will help you decide how hot, cold, wet, or windy it might be!

Date:

Astronomy

May. 14, 2014 Rise Set
Actual Time 6:12 AM CDT 9:23 PM CDT
Civil Twilight 5:35 AM CDT 10:01 PM CDT
Nautical Twilight 4:46 AM CDT 10:50 PM CDT
Astronomical Twilight 3:45 AM CDT 11:52 PM CDT
Moon 9:29 PM CDT (5/14) 6:17 AM CDT (5/14)
Length of Visible Light 16h 25m
Length of Day
15h 11m
Full, 100% of the Moon is Illuminated
May 14
Full
May 14
Full
May 21
Last Quarter
May 28
New
Jun 5
First Quarter

Hourly Weather History & Observations

Time (CDT) Temp. Windchill Dew Point Humidity Pressure Visibility Wind Dir Wind Speed Gust Speed Precip Events Conditions
12:15 AM 32.0 °F 24.8 °F 23.0 °F 69% 30.29 in 10.0 mi North 8.1 mph - N/A   Clear
1:15 AM 33.8 °F 25.8 °F 23.0 °F 65% 30.31 in 10.0 mi North 10.4 mph - N/A   Clear
1:35 AM 33.8 °F 26.4 °F 23.0 °F 65% 30.31 in 10.0 mi North 9.2 mph - N/A   Clear
1:55 AM 32.0 °F 24.8 °F 23.0 °F 69% 30.31 in 10.0 mi North 8.1 mph - N/A   Clear
2:15 AM 30.2 °F 24.3 °F 23.0 °F 75% 30.32 in 10.0 mi North 5.8 mph - N/A   Clear
2:35 AM 32.0 °F 28.7 °F 23.0 °F 69% 30.32 in 10.0 mi North 3.5 mph - N/A   Clear
2:55 AM 28.4 °F - 23.0 °F 80% 30.32 in 10.0 mi Calm Calm - N/A   Clear
3:35 AM 24.8 °F 19.1 °F 24.8 °F 100% 30.32 in 10.0 mi WSW 4.6 mph - N/A   Clear
3:55 AM 24.8 °F 20.5 °F 24.8 °F 100% 30.32 in 10.0 mi WSW 3.5 mph - N/A   Clear
4:15 AM 23.0 °F 17.0 °F 23.0 °F 100% 30.33 in 10.0 mi West 4.6 mph - N/A   Clear
4:35 AM 23.0 °F 17.0 °F 23.0 °F 100% 30.33 in 10.0 mi West 4.6 mph - N/A   Clear
4:55 AM 23.0 °F 15.8 °F 23.0 °F 100% 30.34 in 10.0 mi West 5.8 mph - N/A   Clear
5:15 AM 23.0 °F 15.8 °F 23.0 °F 100% 30.34 in 10.0 mi West 5.8 mph - N/A   Clear
5:35 AM 23.0 °F 14.7 °F 23.0 °F 100% 30.34 in 10.0 mi West 6.9 mph - N/A   Clear
6:15 AM 23.0 °F 13.9 °F 23.0 °F 100% 30.34 in 10.0 mi West 8.1 mph - N/A   Clear
6:35 AM 24.8 °F 17.9 °F 24.8 °F 100% 30.35 in 10.0 mi West 5.8 mph - N/A   Clear
6:55 AM 24.8 °F 16.9 °F 24.8 °F 100% 30.35 in 10.0 mi West 6.9 mph - N/A   Clear
7:15 AM 28.4 °F 20.4 °F 28.4 °F 100% 30.36 in 10.0 mi West 8.1 mph - N/A   Clear
7:35 AM 30.2 °F 24.3 °F 30.2 °F 100% 30.36 in 10.0 mi West 5.8 mph - N/A   Clear
7:55 AM 32.0 °F 25.6 °F 32.0 °F 100% 30.36 in 10.0 mi WNW 6.9 mph - N/A   Clear
8:15 AM 35.6 °F 28.0 °F 30.2 °F 81% 30.36 in 10.0 mi WNW 10.4 mph - N/A   Clear
8:35 AM 37.4 °F 30.3 °F 28.4 °F 70% 30.36 in 10.0 mi WNW 10.4 mph - N/A   Clear
8:55 AM 39.2 °F 31.2 °F 23.0 °F 52% 30.36 in 10.0 mi WNW 13.8 mph 17.3 mph N/A   Clear
9:15 AM 41.0 °F 33.5 °F 21.2 °F 45% 30.37 in 10.0 mi WNW 13.8 mph - N/A   Clear
9:35 AM 41.0 °F 33.1 °F 19.4 °F 42% 30.37 in 10.0 mi WNW 15.0 mph - N/A   Clear
9:55 AM 42.8 °F 35.4 °F 19.4 °F 39% 30.37 in 10.0 mi WNW 15.0 mph 19.6 mph N/A   Clear
10:35 AM 44.6 °F 38.1 °F 19.4 °F 37% 30.37 in 10.0 mi NW 13.8 mph 20.7 mph N/A   Clear
10:55 AM 46.4 °F 39.0 °F 17.6 °F 32% 30.37 in 10.0 mi North 19.6 mph 27.6 mph N/A   Clear
11:15 AM 46.4 °F 39.5 °F 15.8 °F 29% 30.37 in 10.0 mi NNW 17.3 mph 28.8 mph N/A   Clear
11:55 AM 46.4 °F 39.8 °F 15.8 °F 29% 30.37 in 10.0 mi NNW 16.1 mph 23.0 mph N/A   Clear
12:15 PM 46.4 °F 37.9 °F 15.8 °F 29% 30.37 in 10.0 mi NW 25.3 mph 32.2 mph N/A   Clear
12:35 PM 46.4 °F 39.2 °F 15.8 °F 29% 30.37 in 10.0 mi North 18.4 mph 25.3 mph N/A   Clear
12:55 PM 46.4 °F 40.4 °F 15.8 °F 29% 30.37 in 10.0 mi NNW 13.8 mph 26.5 mph N/A   Clear
1:15 PM 48.2 °F - 15.8 °F 27% 30.37 in 10.0 mi North 16.1 mph 23.0 mph N/A   Clear
1:35 PM 48.2 °F - 15.8 °F 27% 30.37 in 10.0 mi NNW 15.0 mph 24.2 mph N/A   Clear
1:55 PM 48.2 °F - 15.8 °F 27% 30.36 in 10.0 mi North 17.3 mph 27.6 mph N/A   Clear
2:15 PM 50.0 °F - 15.8 °F 26% 30.36 in 10.0 mi North 15.0 mph 24.2 mph N/A   Clear
2:35 PM 48.2 °F - 15.8 °F 27% 30.35 in 10.0 mi North 11.5 mph 19.6 mph N/A   Clear
3:15 PM 50.0 °F - 15.8 °F 26% 30.34 in 10.0 mi NW 12.7 mph 21.9 mph N/A   Clear
3:35 PM 50.0 °F - 15.8 °F 26% 30.34 in 10.0 mi North 15.0 mph 20.7 mph N/A   Clear
3:55 PM 51.8 °F - 15.8 °F 24% 30.34 in 10.0 mi NNW 15.0 mph 24.2 mph N/A   Clear
4:15 PM 51.8 °F - 15.8 °F 24% 30.34 in 10.0 mi NNW 12.7 mph 20.7 mph N/A   Clear
4:35 PM 51.8 °F - 14.0 °F 22% 30.33 in 10.0 mi NNW 15.0 mph 24.2 mph N/A   Clear
4:55 PM 51.8 °F - 15.8 °F 24% 30.33 in 10.0 mi NNW 15.0 mph 20.7 mph N/A   Clear
5:15 PM 51.8 °F - 15.8 °F 24% 30.33 in 10.0 mi North 10.4 mph 18.4 mph N/A   Clear
5:35 PM 53.6 °F - 15.8 °F 22% 30.32 in 10.0 mi NNE 10.4 mph - N/A   Clear
5:55 PM 51.8 °F - 15.8 °F 24% 30.32 in 10.0 mi NNW 10.4 mph 19.6 mph N/A   Clear
6:15 PM 51.8 °F - 15.8 °F 24% 30.31 in 10.0 mi North 11.5 mph 18.4 mph N/A   Clear
6:35 PM 51.8 °F - 15.8 °F 24% 30.31 in 10.0 mi NNW 10.4 mph 18.4 mph N/A   Clear
7:15 PM 51.8 °F - 15.8 °F 24% 30.30 in 10.0 mi North 9.2 mph - N/A   Clear
7:55 PM 50.0 °F - 15.8 °F 26% 30.30 in 10.0 mi North 9.2 mph - N/A   Clear
8:15 PM 50.0 °F - 15.8 °F 26% 30.30 in 10.0 mi North 9.2 mph - N/A   Clear
8:55 PM 46.4 °F 44.3 °F 17.6 °F 32% 30.30 in 10.0 mi NE 4.6 mph - N/A   Clear
9:15 PM 44.6 °F 42.2 °F 19.4 °F 37% 30.30 in 10.0 mi ENE 4.6 mph - N/A   Clear
9:55 PM 39.2 °F 35.9 °F 17.6 °F 42% 30.30 in 10.0 mi East 4.6 mph - N/A   Clear
10:15 PM 35.6 °F 30.7 °F 17.6 °F 48% 30.30 in 10.0 mi ESE 5.8 mph - N/A   Clear
10:35 PM 32.0 °F 27.5 °F 17.6 °F 55% 30.30 in 10.0 mi ESE 4.6 mph - N/A   Clear
10:55 PM 35.6 °F 32.8 °F 17.6 °F 48% 30.31 in 10.0 mi ESE 3.5 mph - N/A   Clear
11:15 PM 32.0 °F - 19.4 °F 60% 30.31 in 10.0 mi Calm Calm - N/A   Clear
11:35 PM 32.0 °F - 17.6 °F 55% 30.30 in 10.0 mi Calm Calm - N/A   Clear
11:55 PM 30.2 °F - 19.4 °F 64% 30.30 in 10.0 mi Calm Calm - N/A   Clear